"America/Chicago Time","Lifetime Energy (kWh)","Power (W)","AC Volts RMS (V) ","AC Amps RMS (mA)","Grid Frequency (Hz)","Inverter Temperature (C)"
"06/08/12 05:53:02","105.9337","0.0","213.5","0","60.0","19"
"06/08/12 06:08:00","105.9342","0.0","213.06","0","60.03","20"
"06/08/12 06:12:59","105.9346","0.0","212.72","0","60.0","21"
"06/08/12 06:18:00","105.935","0.0","213.94","0","60.03","21"
"06/08/12 06:22:59","105.9354","0.0","215.76","0","60.07","22"
"06/08/12 06:27:58","105.9359","0.0","211.13","0","60.0","22"
"06/08/12 06:32:59","105.9366","13.8","213.06","0","60.03","22"
"06/08/12 06:38:00","105.9375","15.9","214.32","48","60.03","23"
"06/08/12 06:42:59","105.9387","12.1","213.66","50","60.0","23"
"06/08/12 06:47:58","105.94","25.4","214.23","64","60.03","24"
"06/08/12 06:52:58","105.9416","26.9","214.78","110","60.0","24"
"06/08/12 06:57:58","105.9434","26.7","214.83","212","60.0","25"
"06/08/12 07:02:59","105.9455","26.2","214.83","80","60.0","25"
"06/08/12 07:07:59","105.9479","37.7","213.57","163","60.03","25"
"06/08/12 07:12:58","105.9506","41.8","214.89","323","60.03","26"
"06/08/12 07:17:59","105.9537","36.9","213.57","148","60.03","27"
"06/08/12 07:23:00","105.9572","53.9","214.35","322","60.0","27"
"06/08/12 07:27:58","105.9609","52.7","214.0","110","60.0","28"
"06/08/12 07:32:59","105.9649","47.4","214.62","366","60.0","28"
"06/08/12 07:37:59","105.969","65.0","214.27","333","60.0","29"
"06/08/12 07:42:59","105.9741","66.0","214.46","337","60.03","29"
"06/08/12 07:47:59","105.9797","79.8","213.81","397","60.0","30"
"06/08/12 07:52:59","105.9861","87.9","214.72","428","60.03","31"
"06/08/12 07:57:59","105.9931","93.1","215.34","450","60.0","32"
"06/08/12 08:02:59","106.0004","95.3","215.58","460","60.0","32"
"06/08/12 08:07:58","106.0077","96.7","215.07","470","60.03","33"
"06/08/12 08:13:00","106.0149","73.6","214.27","366","60.0","34"
"06/08/12 08:18:00","106.0213","62.4","213.69","323","60.0","34"
"06/08/12 08:23:00","106.025","30.2","213.52","102","60.03","34"
"06/08/12 08:28:00","106.0274","35.7","212.59","146","60.0","34"
"06/08/12 08:32:59","106.03","42.4","214.35","208","60.03","33"
"06/08/12 08:38:00","106.0337","42.2","214.37","396","60.03","32"
"06/08/12 08:43:00","106.0386","74.5","214.57","374","60.0","32"
"06/08/12 08:47:59","106.045","88.1","214.15","433","60.03","32"
"06/08/12 08:53:00","106.0521","91.8","213.99","449","60.03","33"
"06/08/12 09:02:58","106.0647","96.8","214.98","469","60.03","33"
"06/08/12 09:07:59","106.0737","123.9","214.89","586","60.03","34"
"06/08/12 09:13:00","106.0833","101.1","215.12","487","60.03","34"
"06/08/12 09:17:59","106.0905","87.5","214.75","425","60.0","35"
"06/08/12 09:23:00","106.0962","61.0","214.44","313","60.0","34"
"06/08/12 09:27:59","106.1002","54.7","213.87","368","60.03","34"
"06/08/12 09:32:59","106.1041","49.9","212.22","311","60.03","33"
"06/08/12 09:37:59","106.108","47.5","212.71","216","60.03","33"
"06/08/12 09:42:59","106.112","66.1","213.4","338","60.0","33"
"06/08/12 09:47:59","106.1166","44.0","214.0","299","60.0","32"
"06/08/12 09:58:00","106.1258","64.8","216.0","331","60.03","32"
"06/08/12 10:02:59","106.1311","73.1","215.09","368","60.03","32"
"06/08/12 10:07:59","106.1375","113.0","216.22","533","59.96","32"
"06/08/12 10:12:59","106.1445","71.8","214.34","363","60.0","32"
"06/08/12 10:17:58","106.1496","62.2","214.69","307","60.03","32"
"06/08/12 10:22:58","106.1532","45.1","210.63","361","60.07","32"
"06/08/12 10:27:59","106.156","28.2","214.85","125","60.03","32"
"06/08/12 10:32:58","106.1584","28.8","214.5","291","60.0","32"
"06/08/12 10:38:00","106.1615","49.5","214.48","376","60.0","32"
"06/08/12 10:42:59","106.1651","50.9","213.67","361","60.03","31"
"06/08/12 10:48:00","106.1686","54.6","214.59","117","60.0","31"
"06/08/12 10:53:00","106.1724","52.3","214.21","157","60.0","31"
"06/08/12 10:57:59","106.1756","36.4","214.5","253","60.03","31"
"06/08/12 11:02:59","106.1783","26.1","213.73","83","60.0","31"
"06/08/12 11:07:59","106.1807","41.8","209.8","303","60.03","31"
"06/08/12 11:13:00","106.1838","41.9","216.11","111","60.03","31"
"06/08/12 11:17:59","106.1867","38.3","215.78","249","60.03","30"
"06/08/12 11:23:00","106.1907","57.6","215.67","138","60.0","31"
"06/08/12 11:27:59","106.1958","65.7","215.0","335","60.03","31"
"06/08/12 11:33:00","106.2033","109.8","211.95","527","60.0","32"
"06/08/12 11:37:59","106.2105","79.2","215.22","392","60.03","32"
"06/08/12 11:42:59","106.2169","78.9","214.78","388","60.0","32"
"06/08/12 11:47:59","106.2221","42.1","216.22","398","60.03","32"
"06/08/12 11:53:00","106.2262","61.1","214.82","317","60.03","32"
"06/08/12 11:58:00","106.2315","60.8","217.49","309","60.0","32"
"06/08/12 12:03:00","106.235","43.3","215.12","309","60.0","32"
"06/08/12 12:07:59","106.2387","65.0","215.61","168","60.03","31"
"06/08/12 12:12:59","106.2427","39.1","214.11","123","60.0","31"
"06/08/12 12:17:59","106.2459","28.1","213.33","256","60.0","31"
"06/08/12 12:22:59","106.247","8.9","213.95","0","60.0","31"
"06/08/12 12:27:59","106.2479","12.2","214.0","23","60.0","30"
"06/08/12 12:32:58","106.2505","47.0","214.81","214","60.0","29"
"06/08/12 12:37:59","106.2543","45.2","215.19","398","60.03","29"
"06/08/12 12:42:59","106.2584","57.4","215.44","162","60.03","29"
"06/08/12 12:47:59","106.2621","50.7","215.06","371","60.0","29"
"06/08/12 12:52:59","106.2652","32.5","214.51","88","60.0","29"
"06/08/12 12:57:59","106.2679","34.4","215.06","237","60.0","29"
"06/08/12 13:02:59","106.2703","27.3","215.28","179","60.0","28"
"06/08/12 13:08:00","106.2728","31.9","215.11","78","60.0","28"
"06/08/12 13:12:58","106.2761","42.0","215.14","385","60.03","28"
"06/08/12 13:17:58","106.2803","41.7","215.23","264","60.0","28"
"06/08/12 13:22:59","106.2841","46.2","215.34","240","60.0","28"
"06/08/12 13:27:59","106.2878","63.2","215.06","266","60.03","28"
"06/08/12 13:32:59","106.2914","29.8","214.58","240","60.0","28"
"06/08/12 13:37:59","106.2934","26.9","214.61","19","60.0","28"
"06/08/12 13:43:00","106.2955","26.3","215.18","138","60.03","28"
"06/08/12 13:48:00","106.2977","27.5","214.39","111","60.03","27"
"06/08/12 13:52:58","106.3003","33.4","215.22","300","60.0","27"
"06/08/12 13:57:59","106.3046","66.4","214.55","340","60.07","27"
"06/08/12 14:02:59","106.3106","78.1","215.24","389","60.03","27"
"06/08/12 14:07:58","106.317","135.6","215.98","637","60.03","27"
"06/08/12 14:13:00","106.3234","81.8","215.11","403","60.0","28"
"06/08/12 14:17:59","106.331","70.8","214.69","357","60.0","29"
"06/08/12 14:23:00","106.3373","61.8","214.16","321","60.03","30"
"06/08/12 14:27:59","106.34","10.8","214.56","247","60.03","30"
"06/08/12 14:52:58","106.3495","95.3","215.36","462","60.0","27"
"06/08/12 14:57:59","106.3555","71.9","216.6","359","60.03","27"
"06/08/12 15:02:59","106.3615","76.0","214.39","376","60.03","28"
"06/08/12 15:07:59","106.3669","69.3","214.14","141","60.07","28"
"06/08/12 15:12:59","106.3706","39.6","214.47","393","60.0","28"
"06/08/12 15:17:59","106.3752","48.6","214.96","216","60.0","28"
"06/08/12 15:22:58","106.3791","53.8","214.32","201","60.0","28"
"06/08/12 15:27:59","106.3878","161.5","216.91","742","60.0","30"
"06/08/12 15:32:59","106.3995","138.4","217.26","642","60.0","31"
"06/08/12 15:37:59","106.4084","78.8","215.06","393","60.0","31"
"06/08/12 15:42:59","106.4136","64.3","215.05","325","60.0","31"
"06/08/12 15:47:58","106.4183","44.7","214.19","325","60.0","31"
"06/08/12 15:53:00","106.4224","44.8","214.41","345","60.03","30"
"06/08/12 15:58:00","106.4263","53.6","214.06","186","60.07","30"
"06/08/12 16:02:59","106.4301","45.4","215.1","181","60.0","30"
"06/08/12 16:08:00","106.4367","91.0","215.28","440","60.0","30"
"06/08/12 16:12:59","106.445","136.1","216.71","630","60.03","30"
"06/08/12 16:17:59","106.4534","63.6","214.92","309","60.0","30"
"06/08/12 16:22:59","106.4571","47.6","213.9","358","60.0","30"
"06/08/12 16:27:58","106.4614","72.6","215.26","366","60.03","29"
"06/08/12 16:32:59","106.4656","68.8","214.64","349","60.0","29"
"06/08/12 16:37:59","106.4735","115.2","216.29","545","60.0","29"
"06/08/12 16:43:00","106.4819","110.1","216.33","524","60.0","29"
"06/08/12 16:48:00","106.4884","49.8","214.69","232","60.0","29"
"06/08/12 16:52:59","106.4946","69.7","215.82","352","60.03","29"
"06/08/12 16:57:59","106.4986","32.0","215.6","173","60.0","28"
"06/08/12 17:02:59","106.5008","24.0","214.91","279","60.03","28"
"06/08/12 17:08:00","106.5046","43.5","215.82","341","60.0","28"
"06/08/12 17:12:59","106.5095","34.8","215.36","326","60.03","27"
"06/08/12 17:17:58","106.5145","44.9","216.25","374","60.0","27"
"06/08/12 17:23:00","106.5191","64.0","215.79","326","60.03","27"
"06/08/12 17:27:59","106.5235","62.7","215.59","320","60.03","27"
"06/08/12 17:33:00","106.5279","54.8","215.27","321","60.0","27"
"06/08/12 17:37:59","106.5321","59.0","214.79","285","60.03","27"
"06/08/12 17:43:00","106.5359","50.4","215.52","283","60.0","27"
"06/08/12 17:48:00","106.5393","45.5","215.26","339","60.03","26"
"06/08/12 17:52:59","106.5422","44.0","214.98","289","60.03","26"
"06/08/12 17:58:00","106.5439","24.6","214.74","104","60.03","26"
"06/08/12 18:02:59","106.546","35.4","215.82","148","60.03","25"
"06/08/12 18:08:00","106.5481","28.2","216.02","75","60.03","25"
"06/08/12 18:12:59","106.5512","35.3","214.24","91","60.03","25"
"06/08/12 18:17:59","106.554","33.7","213.31","268","60.03","25"
"06/08/12 18:22:59","106.5561","33.1","214.4","209","60.0","25"
"06/08/12 18:28:00","106.5577","18.9","213.71","17","60.03","25"
"06/08/12 18:32:59","106.5591","12.9","213.6","115","60.03","25"
"06/08/12 18:38:00","106.5603","13.2","213.91","49","60.03","25"
"06/08/12 18:43:00","106.5614","12.0","213.29","43","60.03","25"
"06/08/12 18:48:00","106.5621","10.7","213.78","232","60.03","24"
"06/08/12 18:53:00","106.5626","11.3","213.62","1","60.03","24"
"06/08/12 18:57:59","106.5631","6.2","213.15","138","60.03","24"
"06/08/12 19:03:00","106.5644","10.5","213.61","190","60.03","24"
"06/08/12 19:07:59","106.5654","1.7","213.53","0","60.0","23"
"06/08/12 19:13:00","106.5661","14.4","213.69","65","60.03","23"
"06/08/12 19:17:59","106.5665","0.0","213.84","0","60.0","23"
"06/08/12 19:23:00","106.5669","7.2","213.15","0","60.03","23"
"06/08/12 19:38:00","106.5676","10.3","213.17","15","60.03","22"
"06/08/12 19:43:04","106.5679","0.0","213.16","0","60.0","22"
"06/08/12 19:48:00","106.5682","0.0","212.48","0","60.0","22"
"06/08/12 19:52:59","106.5687","14.1","212.49","8","60.03","22"
"06/08/12 19:57:59","106.5691","7.5","212.83","241","60.0","22"
"06/08/12 20:03:00","106.5695","0.0","212.45","0","59.96","22"
"06/08/12 20:08:00","106.5698","0.0","213.5","0","60.0","22"
"06/09/12 05:58:00","106.5699","0.0","213.47","0","60.03","18"
"06/09/12 06:03:04","106.5703","0.0","215.39","0","60.0","19"
"06/09/12 06:08:02","106.5708","14.3","215.24","67","60.03","19"
"06/09/12 06:13:01","106.5713","5.9","214.89","166","60.0","19"
"06/09/12 06:18:01","106.5718","0.0","213.75","57","60.0","20"
"06/09/12 06:23:00","106.5723","0.0","213.95","0","60.03","20"
"06/09/12 06:27:59","106.5731","13.6","214.21","90","60.03","20"
"06/09/12 06:33:00","106.574","11.4","213.97","38","60.0","20"
"06/09/12 06:38:00","106.575","15.6","213.67","167","60.03","21"
"06/09/12 06:42:59","106.576","12.4","214.35","205","60.0","22"
"06/09/12 06:48:01","106.5771","6.6","213.74","248","60.03","22"
"06/09/12 06:58:00","106.5798","12.8","213.91","46","60.0","22"
"06/09/12 07:03:00","106.5817","14.1","213.49","275","60.0","23"
"06/09/12 07:07:59","106.5837","33.4","214.08","89","60.0","23"
"06/09/12 07:13:00","106.5864","21.8","214.16","32","60.03","24"
"06/09/12 07:17:59","106.588","30.2","213.08","67","60.03","24"
"06/09/12 07:22:59","106.5907","28.9","214.0","71","60.0","24"
"06/09/12 07:27:59","106.5926","47.1","215.09","306","60.0","25"
"06/09/12 07:33:00","106.5952","31.4","213.95","104","60.03","25"
"06/09/12 07:38:00","106.5973","28.1","214.09","86","60.03","26"
"06/09/12 07:43:01","106.6004","50.9","215.16","128","60.03","26"
"06/09/12 07:48:01","106.603","24.4","214.06","80","60.0","26"
"06/09/12 07:52:59","106.6048","23.7","214.19","275","60.0","26"
"06/09/12 07:58:00","106.6086","30.3","214.45","92","60.07","27"
"06/09/12 08:03:00","106.6118","83.0","215.33","408","60.0","27"
"06/09/12 08:07:59","106.6147","64.3","214.12","195","60.0","27"
"06/09/12 08:13:00","106.6188","87.1","214.79","429","60.0","28"
"06/09/12 08:17:59","106.623","29.3","213.67","266","60.0","29"
"06/09/12 08:22:59","106.6296","88.9","214.6","435","60.0","30"
"06/09/12 08:28:01","106.6358","49.5","213.88","439","60.0","31"
"06/09/12 08:32:59","106.6409","106.2","215.22","508","60.0","32"
"06/09/12 08:38:00","106.6462","36.2","213.92","363","60.03","32"
"06/09/12 08:43:01","106.6522","104.2","214.97","500","60.0","32"
"06/09/12 08:48:00","106.6609","68.1","215.04","343","60.03","33"
"06/09/12 08:53:00","106.6681","118.4","215.15","564","60.03","33"
"06/09/12 08:58:00","106.6757","120.8","215.86","571","60.0","34"
"06/09/12 09:02:59","106.6846","116.9","215.43","554","60.03","34"
"06/09/12 09:07:59","106.6927","106.8","215.87","515","60.0","35"
"06/09/12 09:12:59","106.7018","119.0","216.1","562","60.0","35"
"06/09/12 09:17:59","106.7111","120.9","216.5","570","60.0","36"
"06/09/12 09:23:00","106.7205","123.9","216.03","583","60.0","37"
"06/09/12 09:28:00","106.7303","126.6","216.58","591","60.03","37"
"06/09/12 09:32:59","106.7402","128.2","216.17","600","60.07","38"
"06/09/12 09:38:02","106.7505","132.0","215.86","614","59.96","38"
"06/09/12 09:43:00","106.7607","133.7","215.89","625","60.03","38"
"06/09/12 09:48:00","106.7712","134.0","216.09","624","60.0","39"
"06/09/12 09:53:00","106.7816","136.1","215.95","637","60.0","39"
"06/09/12 09:57:59","106.7923","138.8","215.54","650","60.0","40"
"06/09/12 10:02:59","106.8031","142.9","215.85","663","60.0","40"
"06/09/12 10:08:00","106.8141","138.9","216.02","648","60.0","40"
"06/09/12 10:13:00","106.8247","139.7","214.77","655","60.0","40"
"06/09/12 10:17:59","106.8356","143.6","215.36","671","60.03","40"
"06/09/12 10:23:00","106.8469","143.3","216.0","668","60.0","40"
"06/09/12 10:28:00","106.8585","144.8","216.39","674","60.0","40"
"06/09/12 10:33:00","106.8696","142.3","215.27","666","60.03","40"
"06/09/12 10:38:00","106.881","145.0","215.91","670","60.0","40"
"06/09/12 10:43:00","106.8923","153.9","217.05","705","60.0","40"
"06/09/12 10:47:59","106.9044","151.9","216.07","699","60.0","40"
"06/09/12 10:52:59","106.9165","158.9","217.1","736","60.03","41"
"06/09/12 10:58:00","106.929","162.5","217.07","751","60.03","41"
"06/09/12 11:02:59","106.9418","161.9","217.36","741","60.0","42"
"06/09/12 11:07:59","106.9547","163.3","216.94","748","60.0","42"
"06/09/12 11:13:00","106.9674","162.8","216.18","749","60.0","43"
"06/09/12 11:17:59","106.9802","166.0","216.65","763","60.0","43"
"06/09/12 11:22:59","106.9933","174.6","216.6","797","60.0","43"
"06/09/12 11:28:01","107.0055","193.5","217.94","878","60.0","43"
"06/09/12 11:33:00","107.0176","110.9","215.75","529","60.03","44"
"06/09/12 11:38:00","107.0311","176.6","217.49","802","60.0","44"
"06/09/12 11:43:00","107.0439","161.3","216.63","743","60.0","44"
"06/09/12 11:48:00","107.0568","163.9","216.67","753","60.07","44"
"06/09/12 11:53:00","107.0694","161.6","216.87","741","60.0","44"
"06/09/12 11:58:00","107.0821","164.6","216.66","760","60.03","44"
"06/09/12 12:03:00","107.095","165.0","217.52","756","60.03","44"
"06/09/12 12:08:00","107.1075","161.6","217.14","742","60.0","43"
"06/09/12 12:13:00","107.1188","140.9","216.83","650","60.03","43"
"06/09/12 12:17:59","107.1309","79.3","215.08","392","60.0","43"
"06/09/12 12:22:59","107.1432","88.5","215.64","428","60.03","43"
"06/09/12 12:28:00","107.1562","165.2","217.27","756","60.03","44"
"06/09/12 12:33:01","107.1691","109.5","216.22","523","60.0","43"
"06/09/12 12:37:59","107.1807","100.0","216.48","480","60.03","43"
"06/09/12 12:43:01","107.1907","176.1","217.97","802","60.03","43"
"06/09/12 12:48:00","107.2025","171.7","217.73","784","60.0","43"
"06/09/12 12:52:59","107.2131","183.9","217.53","837","60.0","42"
"06/09/12 12:57:59","107.2261","170.8","217.15","781","60.03","42"
"06/09/12 13:02:59","107.2393","170.3","216.24","778","60.03","43"
"06/09/12 13:07:59","107.2523","170.5","217.19","779","60.0","43"
"06/09/12 13:12:59","107.2654","166.2","217.49","758","60.03","43"
"06/09/12 13:18:00","107.2783","163.5","217.75","752","60.03","43"
"06/09/12 13:23:00","107.291","163.6","217.29","749","60.03","43"
"06/09/12 13:28:01","107.3034","163.6","217.24","750","60.0","43"
"06/09/12 13:33:00","107.316","165.9","216.92","761","60.03","43"
"06/09/12 13:38:00","107.3288","159.6","217.67","735","60.0","44"
"06/09/12 13:43:00","107.3414","159.1","216.53","732","60.0","44"
"06/09/12 13:48:01","107.354","160.4","216.71","740","60.03","44"
"06/09/12 13:53:01","107.3663","158.1","216.63","729","60.03","44"
"06/09/12 13:58:00","107.3785","155.9","216.76","717","60.03","45"
"06/09/12 14:03:00","107.3908","158.3","216.93","728","60.0","45"
"06/09/12 14:08:00","107.4031","157.0","217.43","719","60.03","45"
"06/09/12 14:13:01","107.4152","152.0","216.28","703","60.0","45"
"06/09/12 14:18:00","107.4272","155.7","216.05","722","60.0","45"
"06/09/12 14:22:59","107.4391","154.3","216.09","714","60.0","45"
"06/09/12 14:28:01","107.4509","150.2","216.99","695","60.0","45"
"06/09/12 14:33:01","107.4624","144.3","216.65","668","60.0","45"
"06/09/12 14:37:59","107.4737","144.8","215.74","672","60.0","46"
"06/09/12 14:42:59","107.4848","142.2","215.99","660","60.0","46"
"06/09/12 14:48:00","107.4958","137.0","215.67","640","60.03","46"
"06/09/12 14:53:00","107.5066","143.1","216.32","662","60.0","46"
"06/09/12 14:57:59","107.5177","145.7","216.21","675","60.0","46"
"06/09/12 15:03:00","107.5289","139.7","215.54","651","60.0","46"
"06/09/12 15:08:01","107.539","117.0","215.47","550","60.0","46"
"06/09/12 15:13:00","107.5474","102.4","214.17","496","60.03","46"
"06/09/12 15:17:59","107.5564","118.9","215.22","565","60.0","46"
"06/09/12 15:23:01","107.5659","108.8","215.33","521","60.0","45"
"06/09/12 15:27:59","107.573","70.7","213.4","356","60.0","44"
"06/09/12 15:33:00","107.5793","84.9","214.2","412","60.03","44"
"06/09/12 15:37:59","107.5863","97.7","214.49","470","60.03","43"
"06/09/12 15:43:01","107.5956","121.7","215.83","573","60.0","43"
"06/09/12 15:48:01","107.6047","109.8","214.81","529","60.03","43"
"06/09/12 15:53:00","107.6127","99.7","215.18","483","60.03","44"
"06/09/12 15:57:59","107.6195","78.1","214.31","389","60.0","43"
"06/09/12 16:03:00","107.6261","93.5","215.54","455","60.03","41"
"06/09/12 16:08:01","107.6348","117.1","215.18","555","60.0","41"
"06/09/12 16:13:00","107.6431","105.7","215.32","503","60.0","40"
"06/09/12 16:17:59","107.6513","107.3","215.1","515","60.0","39"
"06/09/12 16:23:00","107.6513","102.3","215.08","493","60.03","38"
"06/09/12 16:28:00","107.6588","92.9","214.78","451","60.0","38"
"06/09/12 16:33:00","107.6665","100.4","215.38","486","60.03","37"
"06/09/12 16:38:00","107.6736","72.8","214.51","365","60.03","37"
"06/09/12 16:43:00","107.6802","93.8","214.8","456","60.0","36"
"06/09/12 16:48:00","107.6858","73.0","215.23","366","60.03","35"
"06/09/12 16:53:00","107.692","92.3","214.63","451","60.0","35"
"06/09/12 16:58:00","107.6991","87.1","214.44","425","60.0","34"
"06/09/12 17:03:00","107.7055","78.3","215.46","387","60.03","34"
"06/09/12 17:08:01","107.7114","72.3","215.13","363","60.0","33"
"06/09/12 17:13:00","107.7167","66.2","215.26","339","60.03","33"
"06/09/12 17:18:00","107.7218","63.2","215.32","320","60.03","32"
"06/09/12 17:23:00","107.7262","55.6","215.82","98","60.03","32"
"06/09/12 17:28:00","107.7305","64.4","214.74","124","60.03","31"
"06/09/12 17:33:01","107.7346","39.6","215.32","88","60.03","30"
"06/09/12 17:38:00","107.7385","57.5","214.12","248","60.03","30"
"06/09/12 17:42:59","107.7419","36.3","213.67","350","60.03","29"
"06/09/12 17:47:59","107.7451","44.9","213.3","340","60.03","29"
"06/09/12 17:53:00","107.748","40.5","213.92","229","60.03","28"
"06/09/12 17:58:00","107.7506","36.1","213.25","243","60.0","28"
"06/09/12 18:03:01","107.7529","25.6","213.45","109","60.03","28"
"06/09/12 18:07:59","107.755","23.1","214.11","212","60.0","27"
"06/09/12 18:13:00","107.7568","13.6","214.04","112","60.0","27"
"06/09/12 18:18:01","107.7585","18.9","213.61","15","60.03","27"
"06/09/12 18:23:00","107.7598","14.7","213.52","249","60.07","27"
"06/09/12 18:27:59","107.761","12.8","213.91","24","60.03","27"
"06/09/12 18:33:02","107.7619","14.8","213.96","24","60.0","26"
"06/09/12 18:38:01","107.7628","15.7","213.96","19","60.03","26"
"06/09/12 18:43:00","107.7635","11.9","212.83","78","60.03","26"
"06/09/12 18:48:01","107.7641","7.5","213.15","0","60.03","26"
"06/09/12 18:52:59","107.7645","7.1","213.21","0","60.0","26"
"06/09/12 19:03:01","107.7653","0.0","214.05","0","60.03","26"
"06/09/12 19:07:59","107.7657","0.0","213.38","0","60.03","26"
"06/09/12 19:13:00","107.766","0.0","213.9","144","60.03","26"
"06/10/12 05:52:43","107.766","0.0","213.65","0","60.03","20"
"06/10/12 06:17:21","107.7666","0.0","213.04","0","60.03","23"
"06/10/12 06:22:18","107.767","11.7","212.7","0","60.0","23"
"06/10/12 06:27:18","107.7675","13.5","214.05","1","60.03","23"
"06/10/12 06:32:18","107.7681","6.4","213.89","217","60.03","24"
"06/10/12 06:37:19","107.7689","15.0","213.82","95","60.03","24"
"06/10/12 06:42:19","107.7699","11.5","213.7","12","60.0","24"
"06/10/12 06:47:17","107.771","16.9","213.29","12","60.03","24"
"06/10/12 06:52:17","107.7724","27.7","213.07","112","60.0","25"
"06/10/12 06:57:19","107.7741","22.6","214.07","46","60.03","25"
"06/10/12 07:02:18","107.776","26.5","213.51","213","60.03","25"
"06/10/12 07:07:18","107.7782","34.3","213.07","258","60.03","26"
"06/10/12 07:12:17","107.7807","37.1","213.9","90","60.0","26"
"06/10/12 07:17:18","107.7835","32.5","213.88","82","60.03","26"
"06/10/12 07:22:18","107.7866","47.6","214.12","317","60.0","27"
"06/10/12 07:27:18","107.7899","52.2","213.72","339","60.0","27"
"06/10/12 07:32:18","107.7935","52.0","213.24","339","60.0","28"
"06/10/12 07:37:18","107.7973","51.9","214.08","364","60.0","28"
"06/10/12 07:42:18","107.8012","48.7","213.84","336","60.03","28"
"06/10/12 07:47:19","107.8052","40.8","213.5","363","60.0","29"
"06/10/12 07:52:17","107.8091","44.0","213.76","340","60.0","29"
"06/10/12 07:57:17","107.8143","69.5","213.99","350","60.0","30"
"06/10/12 08:02:18","107.8199","74.2","214.37","369","60.0","30"
"06/10/12 08:07:18","107.8258","78.8","214.83","389","60.0","31"
"06/10/12 08:12:19","107.8321","83.1","214.13","411","60.0","32"
"06/10/12 08:17:18","107.8386","83.5","215.51","408","60.0","32"
"06/10/12 08:22:18","107.8448","76.8","215.43","382","60.0","33"
"06/10/12 08:27:19","107.8511","79.8","215.06","395","60.0","33"
"06/10/12 08:32:17","107.8575","90.2","215.89","434","60.0","33"
"06/10/12 08:37:19","107.8649","96.7","215.55","470","60.03","34"
"06/10/12 08:42:18","107.8726","96.5","216.31","465","60.0","35"
"06/10/12 08:47:18","107.8798","92.6","216.19","448","60.0","35"
"06/10/12 08:52:18","107.8874","104.7","215.77","502","60.03","35"
"06/10/12 08:57:19","107.8959","110.9","216.92","526","60.07","36"
"06/10/12 09:02:18","107.9044","111.3","216.14","531","60.0","36"
"06/10/12 09:07:18","107.9132","116.7","216.89","547","60.0","36"
"06/10/12 09:12:18","107.9224","120.2","216.3","569","60.03","37"
"06/10/12 09:17:19","107.9319","123.3","216.33","582","60.03","37"
"06/10/12 09:22:19","107.9416","126.2","216.41","591","60.03","37"
"06/10/12 09:27:18","107.9515","128.1","216.82","601","60.0","38"
"06/10/12 09:32:18","107.9617","133.5","216.66","621","60.0","38"
"06/10/12 09:37:17","107.9722","135.7","216.4","631","60.0","38"
"06/10/12 09:42:19","107.9825","127.3","216.66","593","60.0","38"
"06/10/12 09:47:18","107.9924","129.4","216.51","604","60.0","38"
"06/10/12 09:52:18","108.0027","132.9","216.5","621","60.03","39"